2023/04/24 00:00:00,14.6, 9.1
2023/04/24 00:10:00,17.7, 8.8
2023/04/24 00:20:00,19.9, 8.4
2023/04/24 00:30:00,21.2, 7.8
2023/04/24 00:40:00,22.1, 7.4
2023/04/24 00:50:00,22.6, 7.3
2023/04/24 01:00:00,22.9, 7.6
2023/04/24 01:10:00,23.2, 7.4
2023/04/24 01:20:00,23.3, 7.5
2023/04/24 01:30:00,23.2, 7.4
2023/04/24 01:40:00,23.2, 7.0
2023/04/24 01:50:00,23.2, 7.0
2023/04/24 02:00:00,22.9, 6.5
2023/04/24 02:10:00,22.7, 6.2
2023/04/24 02:20:00,22.6, 6.0
2023/04/24 02:30:00,22.9, 5.6
2023/04/24 02:40:00,22.7, 5.3
2023/04/24 02:50:00,22.5, 5.0
2023/04/24 03:00:00,22.4, 5.1
2023/04/24 03:10:00,22.8, 4.9
2023/04/24 03:20:00,22.8, 5.4
2023/04/24 03:30:00,23.0, 5.5
2023/04/24 03:40:00,23.1, 5.4
2023/04/24 03:50:00,23.4, 5.7
2023/04/24 04:00:00,23.4, 5.3
2023/04/24 04:10:00,23.5, 5.0
2023/04/24 04:20:00,23.4, 5.2
2023/04/24 04:30:00,22.9, 5.3
2023/04/24 04:40:00,23.4, 5.1
2023/04/24 04:50:00,23.1, 5.6
2023/04/24 05:00:00,22.8, 5.6
2023/04/24 05:10:00,22.6, 5.7
2023/04/24 05:20:00,22.8, 5.8
2023/04/24 05:30:00,23.1, 5.7
2023/04/24 05:40:00,22.7, 5.9
2023/04/24 05:50:00,22.1, 5.8
2023/04/24 06:00:00,19.6, 6.0
2023/04/24 06:10:00,15.1, 6.4
2023/04/24 06:20:00,11.3, 6.6
2023/04/24 06:30:00, 7.3, 6.9
2023/04/24 06:40:00, 3.4, 7.2
2023/04/24 06:50:00, 2.1, 7.4
2023/04/24 07:00:00, 1.0, 7.8
2023/04/24 07:10:00, 0.6, 8.5
2023/04/24 07:20:00, 1.4, 9.9
2023/04/24 07:30:00, 1.4,10.2
2023/04/24 07:40:00, 2.2,10.6
2023/04/24 07:50:00, 1.9,11.4
2023/04/24 08:00:00, 1.1,11.4
2023/04/24 08:10:00, 0.4,11.8
2023/04/24 08:20:00, 0.5,12.1
2023/04/24 08:30:00, 0.4,12.5
2023/04/24 08:40:00, 0.6,12.8
2023/04/24 08:50:00, 1.1,13.1
2023/04/24 09:00:00, 2.3,13.5
2023/04/24 09:10:00, 3.7,13.4
2023/04/24 09:20:00, 8.7,13.6
2023/04/24 09:30:00,21.0,13.8
2023/04/24 09:40:00,14.3,13.8
2023/04/24 09:50:00, 3.8,13.8
2023/04/24 10:00:00,---,14.6
2023/04/24 10:10:00, 3.8,14.7
2023/04/24 10:20:00, 9.2,14.4
2023/04/24 10:30:00,21.1,14.5
2023/04/24 10:40:00,25.9,14.3
2023/04/24 10:50:00,27.1,14.5
2023/04/24 11:00:00,23.7,13.8
2023/04/24 11:10:00,23.2,13.9
2023/04/24 11:20:00,22.9,13.8
2023/04/24 11:30:00,22.9,13.5
2023/04/24 11:40:00,21.6,13.4
2023/04/24 11:50:00,21.7,14.1
2023/04/24 12:00:00,17.3,14.2
2023/04/24 12:10:00,20.0,14.5
2023/04/24 12:20:00,20.5,14.5
2023/04/24 12:30:00,20.0,15.2
2023/04/24 12:40:00,17.4,15.1
2023/04/24 12:50:00,16.9,15.2
2023/04/24 13:00:00,11.1,15.2
2023/04/24 13:10:00, 5.3,15.5
2023/04/24 13:20:00, 5.8,15.7
2023/04/24 13:30:00, 6.8,15.4
2023/04/24 13:40:00, 5.7,15.7
2023/04/24 13:50:00, 5.2,15.6
2023/04/24 14:00:00, 7.9,15.6
2023/04/24 14:10:00, 3.1,15.1
2023/04/24 14:20:00,---,15.6
2023/04/24 14:30:00, 6.9,15.6
2023/04/24 14:40:00,13.2,15.0
2023/04/24 14:50:00,18.7,15.1
2023/04/24 15:00:00,19.5,16.1
2023/04/24 15:10:00,22.9,17.2
2023/04/24 15:20:00,25.3,16.9
2023/04/24 15:30:00,29.8,16.1
2023/04/24 15:40:00,32.5,16.0
2023/04/24 15:50:00,32.5,19.7
2023/04/24 16:00:00,25.6,19.5
2023/04/24 16:10:00,30.8,19.1
2023/04/24 16:20:00,33.9,16.9
2023/04/24 16:30:00,29.3,15.8
2023/04/24 16:40:00,27.7,14.4
2023/04/24 16:50:00,22.5,13.9
2023/04/24 17:00:00,21.6,13.6
2023/04/24 17:10:00,34.3,13.3
2023/04/24 17:20:00,28.5,13.0
2023/04/24 17:30:00,23.1,12.7
2023/04/24 17:40:00,33.6,12.3
2023/04/24 17:50:00,25.0,11.7
2023/04/24 18:00:00,21.9,11.3
2023/04/24 18:10:00,20.3,11.1
2023/04/24 18:20:00,17.5,10.7
2023/04/24 18:30:00,17.1,10.6
2023/04/24 18:40:00,16.6,10.2
2023/04/24 18:50:00,16.7,10.2
2023/04/24 19:00:00,17.8, 9.8
2023/04/24 19:10:00,16.0, 9.8
2023/04/24 19:20:00,16.0, 9.6
2023/04/24 19:30:00, 9.8, 9.3
2023/04/24 19:40:00, 5.7, 9.0
2023/04/24 19:50:00, 2.5, 8.1
2023/04/24 20:00:00, 2.2, 7.4
2023/04/24 20:10:00, 2.3, 7.3
2023/04/24 20:20:00, 1.4, 6.8
2023/04/24 20:30:00, 0.7, 6.7
2023/04/24 20:40:00, 0.2, 6.4
2023/04/24 20:50:00, 0.1, 6.0
2023/04/24 21:00:00, 0.0, 5.9
2023/04/24 21:10:00, 0.0, 5.7
2023/04/24 21:20:00, 0.0, 5.5
2023/04/24 21:30:00, 0.0, 5.4
2023/04/24 21:40:00, 0.0, 5.2
2023/04/24 21:50:00, 0.0, 4.8
2023/04/24 22:00:00, 0.0, 4.4
2023/04/24 22:10:00, 0.0, 4.7
2023/04/24 22:20:00, 0.0, 5.0
2023/04/24 22:30:00, 0.0, 5.0
2023/04/24 22:40:00, 0.0, 5.3
2023/04/24 22:50:00, 0.0, 4.8
2023/04/24 23:00:00, 0.0, 4.3
2023/04/24 23:10:00, 0.0, 4.3
2023/04/24 23:20:00, 0.0, 3.5
2023/04/24 23:30:00, 0.0, 3.2
2023/04/24 23:40:00, 0.0, 3.0
2023/04/24 23:50:00, 0.0, 2.6
